Regional Weather Roundup
Issued by NWS

Home | Current Version | Previous Version | Text Only | Print | Product List | Glossary On
Versions: 1 2 3 4 5 6 7 8 9 10 11 12 13 14 15 16 17 18 19 20 21 22 23 24 25 26 27 28 29 30 31 32 33 34 35 36 37 38 39 40 41 42 43 44 45 46 47 48 49 50
000
ASUS46 KLOX 272112
RWRCA

SOUTHERN CALIFORNIA WEATHER ROUNDUP
NATIONAL WEATHER SERVICE OXNARD CALIFORNIA
100 PM PST FRI FEB 27 2015

NOTE: "FAIR" INDICATES FEW OR NO CLOUDS BELOW 12,000 FEET WITH NO
SIGNIFICANT WEATHER AND/OR OBSTRUCTIONS TO VISIBILITY.

  -  STATIONS PRECEEDED BY AN ASTERISK (*) ARE NOT NWS OR FAA
     STATIONS AND ARE NOT SUBJECT TO NWS AND FAA QUALITY CONTROL.

CAZ041-042-087-272200-
LA AND ORANGE COUNTY COASTAL AREAS


CITY           SKY/WX    TMP DP  RH WIND       PRES   REMARKS
L.A. DOWNTOWN  CLOUDY    64  49  57 CALM      29.80F
L.A. AIRPORT   PTSUNNY   62  54  74 S10       29.80F
LONG BEACH     CLOUDY    63  52  67 S10       29.81F

CITY           SKY/WX    TMP DP  RH WIND       PRES   REMARKS
AVALON           N/A     61 N/A N/A MISG        N/A
FULLERTON      CLOUDY    64  50  60 VRB5      29.79F
*GETTY CENTER    N/A    N/A N/A N/A S9          N/A
HAWTHORNE      CLOUDY    64  53  67 SW7       29.80F
*LEO CARRILLO    N/A     63  54  73 W7          N/A
*LOS ALAMITOS  CLOUDY    64  52  64 S12       29.80F
*REDONDO BEACH   N/A     68  53  60 S6        29.81F
SANTA ANA      PTSUNNY   69  49  48 S12       29.80F
STA MONICA APT CLOUDY    64  49  57 SW8       29.80F
TORRANCE       PTSUNNY   64  55  72 SE9       29.82F
*UCLA            N/A     63  48  59 SW8       29.77F

$$

CAZ547-548-048-272200-
LA COUNTY VALLEYS AND INLAND EMPIRE


CITY           SKY/WX    TMP DP  RH WIND       PRES   REMARKS
BURBANK        CLOUDY    61  48  62 VRB3      29.79F
VAN NUYS       CLOUDY    62  49  62 SE8       29.79F

CITY           SKY/WX    TMP DP  RH WIND       PRES   REMARKS
CORONA AIRPORT MOCLDY    62  49  62 CALM      29.80F
*CHATSWORTH      N/A     61  50  65 S1        29.79F
CHINO          CLOUDY    63  49  60 NW7       29.81F
*CLAREMONT       N/A     59  47  64 SW7         N/A
MARCH AFB      PTSUNNY   59  46  61 SW2       29.79F
*NORTHRIDGE      N/A     61  46  59 SE5G12      N/A
ONTARIO        CLOUDY    60  46  59 W7        29.80F
*PASADENA        N/A     63  50  63 CALM        N/A
POMONA         CLOUDY    57  46  67 VRB5      29.83F
RIVERSIDE      CLOUDY    62  46  55 W7        29.80F
SAN BERNARDINO CLOUDY    59  41  51 CALM      29.81F HAZE
*SAN GABRIEL     N/A     63  45  51 CALM      29.77F
*SAN RAFAEL HI   N/A     57  46  67 W2          N/A
*SAUGUS          N/A     59  49  69 S14         N/A
*WHITEMAN AP   CLOUDY    59  46  63 SE5       29.83F
*WOODLAND HILL   N/A     61  48  63 SE6         N/A

$$

CAZ054-055-272200-
LA AND SAN BERNARDINO COUNTY MOUNTAINS


CITY           SKY/WX    TMP DP  RH WIND       PRES   REMARKS
*ACTON           N/A     62  43  49 SW12        N/A
*BIG BEAR AIRP CLEAR     46  30  53 W12       29.80F
*BIG PINES       N/A     49  33  53 SW3         N/A
MT WILSON NWS    N/A     41  41 100 MISG        N/A
SANDBERG       PTSUNNY   53  42  66 S12       29.80F
*WARM SPRINGS    N/A     50  45  82 CALM        N/A

$$

CAZ028-029-059-060-099-272200-
ANTELOPE VALLEY AND SURROUNDING AREAS


CITY           SKY/WX    TMP DP  RH WIND       PRES   REMARKS
LANCASTER      MOSUNNY   60  43  53 SW21G31   29.74F
PALMDALE       SUNNY     60  42  51 W25       29.74F

CITY           SKY/WX    TMP DP  RH WIND       PRES   REMARKS
29 PALMS       MOSUNNY   69  31  24 CALM      29.71F
BARSTOW/DAGGET SUNNY     71  34  25 W26G37    29.65F
BISHOP         MOSUNNY   60  18  19 VRB3      29.61F
CHINA LAKE     SUNNY     66  36  32 NE9       29.64F
EDWARDS AFB    MOSUNNY   64  39  39 SW21G30   29.69F
MOJAVE         CLOUDY    57  39  51 SW22G28   29.75F
NEEDLES        SUNNY     70  24  17 CALM      29.65F
VICTORVILLE    SUNNY     64  32  29 W18G25    29.72F

$$

CAZ039-040-272200-
VENTURA AND SANTA BARBARA COUNTY COAST


CITY           SKY/WX    TMP DP  RH WIND       PRES   REMARKS
CAMARILLO      CLOUDY    63  50  62 W9        29.80F
OXNARD AIRPORT CLOUDY    64  51  62 W12       29.80F
*POINT MUGU    MOSUNNY   67  53  61 W14       29.81F
SBA APT/GOLETA MOSUNNY   68  53  58 VRB5      29.78F
*SANTA BARBARA   N/A     68  51  55 CALM      29.86F
*VENTURA         N/A     65  52  63 SW3       29.84S

$$

CAZ044-045-272200-
VENTURA COUNTY VALLEYS


CITY           SKY/WX    TMP DP  RH WIND       PRES   REMARKS
*SIMI VALLEY     N/A     61  52  71 W3        29.78F
*OJAI            N/A     64  53  68 W5        29.74F
*FILLMORE        N/A     61  53  75 CALM      29.70F

$$

CAZ053-272200-
VENTURA COUNTY MOUNTAINS


CITY           SKY/WX    TMP DP  RH WIND       PRES   REMARKS
*LOCKWOOD VLY    N/A     55  30  38 MISG        N/A
*ROSE VALLEY     N/A     59  48  67 MISG        N/A

$$

CAZ034-035-036-272200-
CENTRAL COAST AND SANTA YNEZ VALLEY


CITY           SKY/WX    TMP DP  RH WIND       PRES   REMARKS
SAN LUIS OBISP PTSUNNY   63  52  67 W18       29.83F
SANTA MARIA    MOSUNNY   65  50  58 NW17      29.84F

CITY           SKY/WX    TMP DP  RH WIND       PRES   REMARKS
*CAL POLY SLO    N/A     63  54  72 SW7         N/A
*LOMPOC        CLOUDY    63  48  59 NW16G26   29.86F
*PISMO BEACH     N/A     65  53  67 W12       29.84F
*SANTA YNEZ    FAIR      64  45  48 NW10G18   29.82F

$$

CAZ037-038-051-272200-
SAN LUIS OBISPO COUNTY INTERIOR AND CUYAMA VALLEY


CITY           SKY/WX    TMP DP  RH WIND       PRES   REMARKS
*CUYAMA          N/A     63  43  49 W9        29.76F
PASO ROBLES    SUNNY     64  46  52 NW15      29.81F

$$

CAZ032-033-061-272200-
SOUTHERN DESERTS


CITY           SKY/WX    TMP DP  RH WIND       PRES   REMARKS
BLYTHE         SUNNY     73  32  22 S8        29.66F
IMPERIAL       SUNNY     77  39  25 VRB5      29.65F
PALM SPRINGS   MOSUNNY   74  40  29 NW16G22   29.67F
THERMAL        SUNNY     77  38  24 N10       29.63F

$$

ELSEWHERE ACROSS THE WESTERN UNITED STATES AND MEXICO


CITY           SKY/WX    TMP DP  RH WIND       PRES   REMARKS
DENVER, CO     MOSUNNY   17   5  59 S3        29.90F
GRAND CANYON,  CLOUDY    41  28  60 SW15G22   29.75F WCI  33
HONOLULU, HI   MOSUNNY   82  64  54 NE3       29.98S
KAHULUI, MAUI  MOSUNNY   82  64  54 N8        29.99F
LAKE TAHOE, CA CLOUDY    41  20  43 S13       29.72F WCI  34
LAS VEGAS, NV  MOSUNNY   62  20  19 CALM      29.65F
MAMMOTH LAKES, FAIR      46  18  31 W25       29.71F
MEXICO CITY, M PTSUNNY   73  32  21 SE12      30.12F
PHOENIX, AZ    MOSUNNY   75  25  15 W8G17     29.66F
PORTLAND, OR   PTSUNNY   55  45  68 CALM      29.72F
RENO, NV       PTSUNNY   51  28  41 VRB6      29.66F
SALT LAKE CITY PTSUNNY   41  24  51 S5        29.74F
SAN DIEGO, CA  PTSUNNY   64  52  64 S16       29.85F
SAN FRANCISCO, PTSUNNY   61  49  64 W22G29    29.84F
SAN JOSE, CA   PTSUNNY   60  47  61 NW13      29.83F
SEATTLE, WA    CLOUDY    50  45  83 N9        29.76S
TIJUANA, MEX   PTSUNNY   63  46  55 S12       29.85F

$$

STATION/POSITION TIME  TEMP    WIND        PRES    VSBY  WAVE
                       AIR SEA DIR/SP/G                  HT/PER
                 (UTC) (F)     (DEG/KT/KT) (MB)    (MI)  (FT/S)
POINT ARGUELLO B NOT AVBL
WEST SANTA BARBA 2100   58 59  320/ 25/ 31 1009.9F        10/11
POINT CONCEPTION NOT AVBL
EAST SANTA BARBA NOT AVBL
SANTA MONICA BAY 2100   60 63  320/  8/ 12 1009.9F         5/ 7


USA.gov is the U.S. government's official web portal to all federal, state and local government web resources and services.